Weather History for KROS - August, 2013

Change the Weather History Date:

Saturday, August 17, 2013

  Actual Average (KCBG) Record (KCBG)
Temperature  
Mean Temperature 64 °F -  
Max Temperature 79 °F 79 °F 94 °F (1955)
Min Temperature 49 °F 56 °F 41 °F (1963)
Degree Days  
Heating Degree Days 1    
Growing Degree Days 14 (Base 50)    
Moisture  
Dew Point 53 °F    
Average Humidity 68    
Maximum Humidity 96    
Minimum Humidity 37    
Precipitation  
Precipitation 0.00 in - - ()
Sea Level Pressure  
Sea Level Pressure 30.16 in    
Wind  
Wind Speed 3 mph (SSW)    
Max Wind Speed 13 mph    
Max Gust Speed 20 mph    
Visibility 10 miles    
Events      
Averages and records for this station are not official NWS values.
T = Trace of Precipitation, MM = Missing Value Source: NWS Daily Summary

Daily Weather History Graph

Daily Weather History Graph

Search for Another Location

Airport or City:

Trip Planner

Search our weather history database for the weather conditions in past years. The results will help you decide how hot, cold, wet, or windy it might be!

Date:

Astronomy

Aug. 17, 2013 Rise Set
Actual Time 6:14 AM CDT 8:15 PM CDT
Civil Twilight 5:42 AM CDT 8:47 PM CDT
Nautical Twilight 5:02 AM CDT 9:27 PM CDT
Astronomical Twilight 4:19 AM CDT 10:10 PM CDT
Moon 5:36 PM CDT (8/17) 2:12 AM CDT (8/17)
Length of Visible Light 15h 05m
Length of Day
14h 01m
Waxing Gibbous, 84% of the Moon is Illuminated
Aug 17
Waxing Gibbous
Aug 20
Full
Aug 28
Last Quarter
Sep 5
New
Sep 12
First Quarter

Hourly Weather History & Observations

Time (CDT) Temp. Dew Point Humidity Pressure Visibility Wind Dir Wind Speed Gust Speed Precip Events Conditions
12:15 AM 54.5 °F 52.3 °F 92% 30.18 in 10.0 mi Calm Calm - N/A   Scattered Clouds
12:35 AM 54.1 °F 52.3 °F 94% 30.18 in 10.0 mi Calm Calm - N/A   Scattered Clouds
12:55 AM 53.6 °F 52.0 °F 94% 30.18 in 10.0 mi Calm Calm - N/A   Mostly Cloudy
1:15 AM 52.7 °F 51.1 °F 94% 30.19 in 10.0 mi Calm Calm - N/A   Scattered Clouds
1:35 AM 52.0 °F 50.4 °F 94% 30.18 in 10.0 mi Calm Calm - N/A   Scattered Clouds
1:55 AM 52.0 °F 50.5 °F 95% 30.18 in 10.0 mi Calm Calm - N/A   Scattered Clouds
2:15 AM 52.2 °F 50.9 °F 95% 30.18 in 10.0 mi Calm Calm - N/A   Scattered Clouds
2:35 AM 51.8 °F 50.2 °F 94% 30.18 in 10.0 mi Calm Calm - N/A   Scattered Clouds
2:55 AM 51.3 °F 50.0 °F 95% 30.18 in 10.0 mi Calm Calm - N/A   Scattered Clouds
3:15 AM 51.1 °F 49.8 °F 95% 30.19 in 10.0 mi Calm Calm - N/A   Scattered Clouds
3:35 AM 50.5 °F 49.3 °F 95% 30.19 in 10.0 mi Calm Calm - N/A   Scattered Clouds
3:55 AM 50.5 °F 49.3 °F 95% 30.19 in 10.0 mi Calm Calm - N/A   Scattered Clouds
4:15 AM 49.1 °F 47.7 °F 95% 30.19 in 10.0 mi Calm Calm - N/A   Scattered Clouds
4:35 AM 50.0 °F 48.9 °F 96% 30.19 in 10.0 mi Calm Calm - N/A   Scattered Clouds
4:55 AM 51.3 °F 50.2 °F 96% 30.19 in 10.0 mi Calm Calm - N/A   Scattered Clouds
5:14 AM 50.9 °F 49.6 °F 95% 30.19 in 10.0 mi Calm Calm - N/A   Scattered Clouds
5:35 AM 51.3 °F 50.0 °F 95% 30.20 in 10.0 mi Calm Calm - N/A   Scattered Clouds
5:55 AM 50.0 °F 48.7 °F 95% 30.20 in 10.0 mi Calm Calm - N/A   Scattered Clouds
6:15 AM 51.4 °F 50.4 °F 96% 30.20 in 10.0 mi Calm Calm - N/A   Scattered Clouds
6:35 AM 52.3 °F 51.3 °F 96% 30.20 in 7.0 mi Calm Calm - N/A   Scattered Clouds
6:55 AM 52.5 °F 51.3 °F 95% 30.21 in 7.0 mi Calm Calm - N/A   Clear
7:14 AM 54.1 °F 53.1 °F 96% 30.20 in 10.0 mi Calm Calm - N/A   Clear
7:35 AM 56.3 °F 55.0 °F 96% 30.20 in 10.0 mi Calm Calm - N/A   Scattered Clouds
7:54 AM 57.4 °F 56.3 °F 96% 30.21 in 10.0 mi South 5.8 mph - N/A   Clear
8:15 AM 59.7 °F 57.9 °F 94% 30.20 in 10.0 mi South 5.8 mph - N/A   Clear
8:35 AM 62.2 °F 57.9 °F 86% 30.21 in 10.0 mi South 5.8 mph - N/A   Clear
8:55 AM 65.1 °F 57.2 °F 75% 30.21 in 10.0 mi South 8.1 mph - N/A   Clear
9:15 AM 67.1 °F 56.7 °F 69% 30.20 in 10.0 mi SSW 6.9 mph - N/A   Clear
9:35 AM 68.5 °F 57.0 °F 67% 30.20 in 10.0 mi South 8.1 mph - N/A   Clear
9:54 AM 70.3 °F 56.8 °F 62% 30.20 in 10.0 mi South 9.2 mph - N/A   Clear
10:15 AM 72.5 °F 56.5 °F 57% 30.20 in 10.0 mi SSW 10.4 mph - N/A   Clear
10:35 AM 73.4 °F 56.3 °F 55% 30.20 in 10.0 mi South 8.1 mph - N/A   Clear
10:54 AM 74.1 °F 56.3 °F 54% 30.20 in 10.0 mi SSW 8.1 mph - N/A   Clear
11:15 AM 75.0 °F 55.9 °F 51% 30.20 in 10.0 mi SSW 9.2 mph - N/A   Clear
11:35 AM 75.4 °F 55.6 °F 50% 30.20 in 10.0 mi South 9.2 mph - N/A   Clear
11:54 AM 75.9 °F 54.5 °F 47% 30.19 in 10.0 mi SSW 11.5 mph 18.4 mph N/A   Clear
12:15 PM 76.5 °F 53.2 °F 44% 30.18 in 10.0 mi SSW 10.4 mph 16.1 mph N/A   Clear
12:35 PM 76.6 °F 53.4 °F 44% 30.18 in 10.0 mi SSW 8.1 mph 18.4 mph N/A   Scattered Clouds
12:54 PM 77.7 °F 51.6 °F 40% 30.18 in 10.0 mi South 11.5 mph 17.3 mph N/A   Clear
1:15 PM 77.9 °F 51.3 °F 39% 30.17 in 10.0 mi SSW 9.2 mph 18.4 mph N/A   Clear
1:35 PM 78.8 °F 51.4 °F 38% 30.17 in 10.0 mi SSW 11.5 mph - N/A   Clear
1:55 PM 78.4 °F 50.9 °F 38% 30.16 in 10.0 mi SSW 8.1 mph - N/A   Clear
2:15 PM 79.0 °F 50.4 °F 37% 30.15 in 10.0 mi SSW 9.2 mph 18.4 mph N/A   Clear
2:35 PM 79.3 °F 51.6 °F 38% 30.15 in 10.0 mi SW 6.9 mph 19.6 mph N/A   Clear
2:54 PM 79.2 °F 52.9 °F 40% 30.14 in 10.0 mi SW 9.2 mph 17.3 mph N/A   Clear
3:15 PM 79.7 °F 52.0 °F 38% 30.14 in 10.0 mi SSW 12.7 mph - N/A   Scattered Clouds
3:35 PM 79.2 °F 53.1 °F 40% 30.14 in 10.0 mi South 10.4 mph 18.4 mph N/A   Clear
3:55 PM 79.5 °F 52.2 °F 38% 30.14 in 10.0 mi SSW 10.4 mph 18.4 mph N/A   Clear
4:15 PM 79.0 °F 52.0 °F 39% 30.14 in 10.0 mi SSW 9.2 mph 18.4 mph N/A   Clear
4:34 PM 78.3 °F 52.5 °F 41% 30.14 in 10.0 mi South 8.1 mph - N/A   Clear
4:55 PM 79.0 °F 52.7 °F 40% 30.13 in 10.0 mi SSW 10.4 mph 16.1 mph N/A   Clear
5:15 PM 79.0 °F 52.5 °F 40% 30.12 in 10.0 mi SSW 10.4 mph - N/A   Scattered Clouds
5:35 PM 79.2 °F 53.4 °F 41% 30.12 in 10.0 mi SSW 11.5 mph - N/A   Scattered Clouds
5:55 PM 78.3 °F 52.7 °F 41% 30.11 in 10.0 mi SSW 10.4 mph - N/A   Scattered Clouds
6:15 PM 78.3 °F 53.6 °F 42% 30.11 in 10.0 mi South 6.9 mph - N/A   Clear
6:35 PM 77.4 °F 53.6 °F 44% 30.11 in 10.0 mi SSW 5.8 mph - N/A   Clear
6:55 PM 76.6 °F 53.2 °F 44% 30.11 in 10.0 mi SSW 8.1 mph - N/A   Clear
7:15 PM 76.1 °F 53.4 °F 45% 30.11 in 10.0 mi SSW 6.9 mph - N/A   Clear
7:35 PM 74.5 °F 53.8 °F 48% 30.11 in 10.0 mi SSW 5.8 mph - N/A   Clear
7:55 PM 72.0 °F 54.5 °F 54% 30.11 in 10.0 mi South 4.6 mph - N/A   Clear
8:15 PM 70.7 °F 54.5 °F 56% 30.11 in 10.0 mi South 4.6 mph - N/A   Clear
8:35 PM 68.7 °F 54.7 °F 61% 30.11 in 10.0 mi South 3.5 mph - N/A   Clear
8:55 PM 67.1 °F 54.5 °F 64% 30.11 in 10.0 mi South 4.6 mph - N/A   Clear
9:15 PM 66.9 °F 54.1 °F 63% 30.11 in 10.0 mi South 4.6 mph - N/A   Clear
9:35 PM 64.8 °F 54.1 °F 68% 30.11 in 10.0 mi South 4.6 mph - N/A   Clear
9:55 PM 64.0 °F 53.8 °F 69% 30.11 in 10.0 mi South 4.6 mph - N/A   Clear
10:15 PM 63.5 °F 53.6 °F 70% 30.11 in 10.0 mi South 4.6 mph - N/A   Scattered Clouds
10:35 PM 62.6 °F 53.6 °F 72% 30.12 in 10.0 mi South 3.5 mph - N/A   Scattered Clouds
10:55 PM 61.7 °F 53.2 °F 74% 30.11 in 10.0 mi SSE 3.5 mph - N/A   Scattered Clouds
11:15 PM 60.6 °F 52.9 °F 76% 30.11 in 10.0 mi SSE 4.6 mph - N/A   Scattered Clouds
11:34 PM 60.1 °F 52.9 °F 77% 30.11 in 10.0 mi SSE 4.6 mph - N/A   Mostly Cloudy
11:55 PM 59.2 °F 52.7 °F 79% 30.12 in 10.0 mi SSE 5.8 mph - N/A   Scattered Clouds